Find Starlink 3858

NORAD ID: 52553 Int'l Des: 2022-051 Owner: SPXS Country: US Constellation: starlink operational
LEOCIRCULAR

Live-Position

3D-Globus wird geladen...

Über Starlink 3858

Beschreibung wird geladen...

Nächste Überflüge

Passes for default location (London). Set your location on the main map for personalized predictions.

Höhenverlauf

Loading altitude history...

Zweizeiliger Elementsatz

1 52553U 22051W 26124.16668980 .01805652 00000-0 60543-1 0 9995
2 52553 53.2215 238.7321 0000521 121.8029 151.1040 15.27406407 5875
Epoch: 4. Mai 2026 • Age: 10 hours

Aktueller Status

Höhe 494.1 km
Geschwindigkeit 7.62 km/s
Subsatellitenpunkt -42.38°S, 128.47°E
Startdatum 13. Mai 2022
Alter 3.9 years
Typ internet

Technische Details

Klassifizierung Payload
Masse 297.00 kg
Trockenmasse 275.00 kg
Gesamtmasse 297.00 kg
Länge 0.20 m
Durchmesser 2.80 m
Spannweite 9.00 m
Form Box + pan
Hersteller SPXS
Bus-Typ Starlink
Phasenstatus In Orbit
Besitzer/Staat SPXS/US

Most Searched